York, PA

8:56 PM EDT on August 16, 2017 (GMT -0400)
York

Weather History for KTHV - August, 2013

Change the Weather History Date:

Sunday, August 11, 2013

  Actual Average Record
Temperature  
Mean Temperature 71 °F -  
Max Temperature 84 °F 80 °F 93 °F (1999)
Min Temperature 60 °F 57 °F 53 °F (2006)
Cooling Degree Days 6    
Growing Degree Days 21 (Base 50)    
Moisture  
Dew Point 63 °F    
Average Humidity 75    
Maximum Humidity 90    
Minimum Humidity 54    
Precipitation  
Precipitation 0.29 in - - ()
Sea Level Pressure  
Sea Level Pressure 30.08 in    
Wind  
Wind Speed 1 mph (WNW)    
Max Wind Speed 13 mph    
Max Gust Speed 17 mph    
Visibility 7 miles    
Events Rain , Thunderstorm    
Averages and records for this station are not official NWS values.
T = Trace of Precipitation, MM = Missing Value Source: NWS Daily Summary

Daily Weather History Graph

Daily Weather History Graph

Search for Another Location

Airport or City:

Trip Planner

Search our weather history database for the weather conditions in past years. The results will help you decide how hot, cold, wet, or windy it might be!

Date:

Astronomy

Aug. 11, 2013 Rise Set
Actual Time 6:15 AM EDT 8:08 PM EDT
Civil Twilight 5:46 AM EDT 8:38 PM EDT
Nautical Twilight 5:10 AM EDT 9:13 PM EDT
Astronomical Twilight 4:32 AM EDT 9:51 PM EDT
Moon 11:01 AM EDT (8/11) 10:23 PM EDT (8/11)
Length of Visible Light 14h 51m
Length of Day
13h 53m
Waxing Crescent, 22% of the Moon is Illuminated
Aug 11
Waxing Crescent
Aug 14
First Quarter
Aug 20
Full
Aug 28
Last Quarter
Sep 5
New

Hourly Weather History & Observations

Time (EDT) Temp. Heat Index Dew Point Humidity Pressure Visibility Wind Dir Wind Speed Gust Speed Precip Events Conditions
12:53 AM 63.0 °F - 60.1 °F 90% 30.09 in 8.0 mi Calm Calm - N/A   Clear
1:53 AM 63.0 °F - 60.1 °F 90% 30.09 in 8.0 mi Calm Calm - N/A   Clear
2:53 AM 61.0 °F - 57.9 °F 90% 30.09 in 4.0 mi Calm Calm - N/A   Clear
3:53 AM 61.0 °F - 57.9 °F 90% 30.10 in 5.0 mi Calm Calm - 0.01 in   Clear
4:53 AM 60.1 °F - 57.0 °F 90% 30.09 in 3.0 mi Calm Calm - N/A   Clear
5:53 AM 62.1 °F - 59.0 °F 90% 30.11 in 5.0 mi Calm Calm - N/A   Overcast
6:53 AM 62.1 °F - 59.0 °F 90% 30.13 in 4.0 mi Calm Calm - N/A   Scattered Clouds
7:53 AM 66.9 °F - 61.0 °F 81% 30.13 in 10.0 mi Calm Calm - N/A   Clear
8:53 AM 71.1 °F - 61.0 °F 70% 30.14 in 10.0 mi Calm Calm - N/A   Clear
9:53 AM 73.0 °F - 61.0 °F 66% 30.14 in 10.0 mi East 3.5 mph - N/A   Mostly Cloudy
10:53 AM 75.9 °F - 61.0 °F 60% 30.13 in 10.0 mi East 4.6 mph - N/A   Mostly Cloudy
11:53 AM 77.0 °F - 59.0 °F 54% 30.12 in 10.0 mi Calm Calm - N/A   Overcast
12:53 PM 81.0 °F 82.2 °F 63.0 °F 54% 30.11 in 10.0 mi Variable 3.5 mph - N/A   Clear
1:53 PM 80.1 °F 81.2 °F 62.1 °F 54% 30.08 in 10.0 mi Calm Calm - N/A   Scattered Clouds
2:53 PM 82.0 °F 83.4 °F 64.0 °F 54% 30.07 in 10.0 mi Variable 4.6 mph - N/A   Mostly Cloudy
3:53 PM 81.0 °F 82.2 °F 63.0 °F 54% 30.05 in 10.0 mi Calm Calm - N/A   Partly Cloudy
4:53 PM 82.0 °F 84.1 °F 66.0 °F 58% 30.03 in 10.0 mi Variable 3.5 mph - N/A   Mostly Cloudy
5:53 PM 81.0 °F 83.0 °F 66.0 °F 60% 30.03 in 10.0 mi Calm Calm - N/A   Mostly Cloudy
6:53 PM 80.1 °F 82.1 °F 66.0 °F 62% 30.01 in 10.0 mi Variable 6.9 mph - N/A   Scattered Clouds
7:53 PM 77.0 °F - 66.0 °F 69% 30.01 in 10.0 mi SSE 3.5 mph - N/A   Partly Cloudy
8:03 PM 77.0 °F - 66.2 °F 69% 30.02 in 10.0 mi Calm Calm - N/A Thunderstorm Partly Cloudy
8:18 PM 75.2 °F - 66.2 °F 73% 30.03 in 10.0 mi SE 4.6 mph - N/A   Partly Cloudy
8:46 PM 73.4 °F - 68.0 °F 83% 30.06 in 8.0 mi WNW 4.6 mph - 0.00 in Rain , Thunderstorm Light Rain
8:53 PM 73.9 °F - 68.0 °F 82% 30.06 in 5.0 mi WNW 9.2 mph - 0.02 in Rain , Thunderstorm Rain
8:58 PM 71.6 °F - 68.0 °F 88% 30.07 in 2.5 mi WNW 8.1 mph - 0.04 in Rain Heavy Rain
9:02 PM 71.6 °F - 68.0 °F 88% 30.07 in 1.8 mi WNW 12.7 mph 17.3 mph 0.09 in Rain Heavy Rain
9:20 PM 71.6 °F - 66.2 °F 83% 30.06 in 2.5 mi Calm Calm - 0.26 in Rain Rain
9:27 PM 71.6 °F - 66.2 °F 83% 30.07 in 6.0 mi Calm Calm - 0.26 in Rain Light Rain
9:53 PM 71.1 °F - 66.9 °F 87% 30.06 in 9.0 mi Calm Calm - 0.26 in   Mostly Cloudy
10:53 PM 70.0 °F - 66.0 °F 87% 30.04 in 6.0 mi Calm Calm - N/A   Partly Cloudy
11:53 PM 69.1 °F - 66.0 °F 90% 30.04 in 3.0 mi Calm Calm - N/A   Partly Cloudy